Location: Follega
(52.8850°N, 5.7362°E)
Time: 03:19:08
(UTC+00:00)

Cosmos 2297 Rocket - Pass Details

Date: 06 October 2020
Orbit: 838 x 845 km, 71.0° (Epoch: 26 October)

Event Time Altitude Azimuth Distance (km) Brightness Sun altitude
Rises 18:03:16 0° 313° (NW) 3,414 6.2 -10.2°
Reaches altitude 10° 18:07:20 10° 342° (NNW) 2,479 5.0 -10.8°
Maximum altitude 18:09:50 13° 8° (N) 2,281 4.4 -11.1°
Drops below altitude 10° 18:12:19 10° 34° (NE) 2,478 4.4 -11.5°
Enters shadow 18:14:31 - 52° (NE) 2,918 4.6 -11.8°
